Tracking 31027 objects as of 19-Jul-2025
HD Live streaming from Space Station
objects crossing your sky now

NOAA 16 DEB

Track NOAA 16 DEB now!
10-day predictions


NORAD ID: 41419
Int'l Code: 2000-055KY
Perigee: 718.0 km
Apogee: 733.6 km
Inclination: 98.9 °
Period: 99.2 minutes
Semi major axis: 7096 km
RCS: Unknown
Launch date: September 21, 2000
Source: United States (US)
Launch site: AIR FORCE WESTERN TEST RANGE (AFWTR)

Note: This is SATELLITE DEBRIS
Your satellite tracking list
NOAA 16 DEB
Track 1 satellite(s)




NASA's NSSDC Master Catalog

Two Line Element Set (TLE):
1 41419U 00055KY  25199.76538439  .00012510  00000-0  30921-2 0  9996
2 41419  98.8541 311.5486 0010987  13.7623 346.3868 14.52139385486109
Source of the keplerian elements: AFSPC